|
NORAD ID: 11669 Int'l Code: 1980-004A
Perigee: 35,684.7 km
Apogee: 35,942.0 km
Inclination: 13.3 °
Period: 1,437.1 minutes
Semi major axis: 42184 km
Launch date: January 18, 1980
Source: United States (US)
Two Line Element Set (TLE):
1 11669U 80004A 13140.45210282 -.00000304 00000-0 10000-3 0 3365
2 11669 013.2624 348.3075 0030497 118.0809 242.1911 01.00201745122075
Source:
NASA's NSSDC Master Catalog entry for OPS 6393 (FLTSATCOM 3)
|